Location: ????? ???????
(25.7275°N, 32.5929°E)
Time: 10:23:10
(UTC+00:00)

SME Rocket - Pass Details

Date: 02 March 2021
Orbit: 550 x 2652 km, 99.9° (Epoch: 15 April)

Event Time Altitude Azimuth Distance (km) Brightness Sun altitude
Rises 17:36:57 0° 10° (N) 4,330 7.3 -24.4°
Reaches altitude 10° 17:40:09 10° 9° (N) 3,047 6.5 -25.1°
Maximum altitude 17:46:36 67° 287° (WNW) 899 3.9 -26.6°
Drops below altitude 10° 17:51:00 10° 205° (SSW) 2,099 6.0 -27.6°
Sets 17:52:53 0° 202° (SSW) 2,890 6.7 -28.0°
